W7JFO-3 Weather Reports


Display with metric or nautical units.
time (UTC)temp
F
wind
direction
speed
MPH
gust
MPH
rain 1hr
in
rain 24hr
in
rain mn
in
humidity
%
barometer
mb
20260507051640 56 103 5.0 7.0 0.01 0.01 0.01 56 1008.4
20260507050140 54 113 7.0 12.0 0.01 0.01 0.01 59 1007.7
20260507044640 55 90 4.0 10.0 0.01 0.01 0.01 62 1007.8
20260507043140 54 199 4.0 7.0 0.01 0.01 0.01 62 1007.8
20260507041640 57 142 2.0 8.0 0.00 0.00 0.00 57 1008.3
20260507040140 58 204 7.0 11.0 0.00 0.00 0.00 49 1008.0
20260507034640 58 232 10.0 17.0 0.00 0.00 0.00 51 1007.6
20260507033140 57 234 11.0 21.0 0.00 0.00 0.00 53 1007.8
20260507031640 59 236 5.0 16.0 0.00 0.00 0.00 47 1007.8
20260507030140 60 213 9.0 13.0 0.00 0.00 0.00 41 1008.2
20260507024640 60 300 9.0 20.0 0.00 0.00 0.00 54 1008.3
20260507023140 62 223 7.0 15.0 0.00 0.00 0.00 49 1007.5
20260507021640 62 222 7.0 13.0 0.00 0.00 0.00 48 1007.3
20260507020140 63 234 9.0 17.0 0.00 0.00 0.00 47 1007.5
20260507014640 63 180 8.0 13.0 0.00 0.00 0.00 46 1007.2
20260507013140 63 191 9.0 15.0 0.00 0.00 0.00 44 1007.2
20260507011640 63 237 7.0 13.0 0.00 0.00 0.00 43 1007.8
20260507010140 64 197 3.0 6.0 0.00 0.00 0.00 42 1008.0
20260507004640 64 209 5.0 9.0 0.00 0.00 0.00 42 1007.7
20260507003140 64 198 5.0 10.0 0.00 0.00 0.00 41 1007.8
20260507001640 65 222 2.0 7.0 0.00 0.00 0.00 40 1008.2
20260507000140 64 160 2.0 4.0 0.00 0.00 0.00 42 1008.0
20260506234640 63 35 1.0 2.0 0.00 0.00 0.00 43 1008.0
20260506233140 63 35 1.0 3.0 0.00 0.00 0.00 42 1008.1
20260506231640 63 47 2.0 5.0 0.00 0.00 0.00 41 1008.5
20260506230140 63 119 2.0 4.0 0.00 0.00 0.00 40 1008.4
20260506224640 62 60 2.0 4.0 0.00 0.00 0.00 40 1008.5
20260506223140 62 329 2.0 2.0 0.00 0.00 0.00 41 1008.7
20260506221640 62 331 3.0 5.0 0.00 0.00 0.00 40 1009.3
20260506220140 62 350 4.0 7.0 0.00 0.00 0.00 39 1009.1
20260506214640 64 23 2.0 6.0 0.00 0.00 0.00 37 1009.3
20260506213140 63 5 2.0 4.0 0.00 0.00 0.00 37 1009.9
20260506211641 63 69 3.0 7.0 0.00 0.00 0.00 36 1009.9
20260506210140 63 34 3.0 6.0 0.00 0.00 0.00 36 1009.8
20260506204641 63 0 3.0 5.0 0.00 0.00 0.00 36 1009.9
20260506203141 61 49 4.0 9.0 0.00 0.00 0.00 36 1010.2
20260506201641 61 84 4.0 6.0 0.00 0.00 0.00 37 1010.6
20260506200141 62 88 4.0 8.0 0.00 0.00 0.00 37 1010.5
20260506194641 60 69 3.0 5.0 0.00 0.00 0.00 37 1010.7
20260506193141 58 80 3.0 8.0 0.00 0.00 0.00 41 1011.4
20260506191641 58 70 4.0 10.0 0.00 0.00 0.00 36 1011.3
20260506190141 58 78 3.0 10.0 0.00 0.00 0.00 37 1011.4
20260506184641 57 61 3.0 6.0 0.00 0.00 0.00 37 1012.1
20260506183141 56 146 3.0 7.0 0.00 0.00 0.00 39 1011.9
20260506181641 55 68 3.0 8.0 0.00 0.00 0.00 43 1012.0
20260506180141 53 11 3.0 8.0 0.00 0.00 0.00 44 1012.5
20260506174641 53 26 3.0 9.0 0.00 0.00 0.00 44 1012.5
20260506173141 52 43 4.0 6.0 0.00 0.00 0.00 47 1012.8
20260506171641 52 45 3.0 6.0 0.00 0.00 0.00 47 1013.4
20260506170141 51 58 3.0 5.0 0.00 0.00 0.00 47 1013.3
20260506164641 51 17 3.0 7.0 0.00 0.00 0.00 49 1013.3
20260506163141 51 32 2.0 3.0 0.00 0.00 0.00 50 1013.4
20260506161641 49 47 4.0 13.0 0.00 0.00 0.00 50 1013.5
20260506160141 47 85 4.0 8.0 0.00 0.00 0.00 49 1013.7
20260506154641 46 85 3.0 5.0 0.00 0.00 0.00 52 1013.7
20260506153141 45 84 3.0 7.0 0.00 0.00 0.00 53 1013.9
20260506151641 47 74 1.0 6.0 0.00 0.00 0.00 53 1013.9
20260506150141 47 133 1.0 2.0 0.00 0.00 0.00 57 1013.8
20260506144641 46 100 2.0 5.0 0.00 0.00 0.00 50 1013.8
20260506143141 45 88 2.0 4.0 0.00 0.00 0.00 51 1013.9
20260506141641 45 79 1.0 3.0 0.00 0.00 0.00 53 1014.1
20260506140141 44 96 2.0 4.0 0.00 0.00 0.00 51 1014.1
20260506134642 43 69 2.0 4.0 0.00 0.00 0.00 51 1014.1
20260506133141 43 105 1.0 2.0 0.00 0.00 0.00 51 1014.0
20260506131641 43 107 1.0 2.0 0.00 0.00 0.00 48 1014.0
20260506130141 42 107 1.0 1.0 0.00 0.00 0.00 48 1014.1
20260506124641 41 107 3.0 7.0 0.00 0.00 0.00 49 1014.4
20260506123141 41 93 3.0 6.0 0.00 0.00 0.00 50 1014.3
20260506121641 41 108 1.0 5.0 0.00 0.00 0.00 49 1014.4
20260506120141 41 107 2.0 4.0 0.00 0.00 0.00 50 1014.0
20260506114641 41 117 2.0 3.0 0.00 0.00 0.00 49 1014.1
20260506113141 42 140 3.0 4.0 0.00 0.00 0.00 49 1014.2
20260506111642 42 140 3.0 7.0 0.00 0.00 0.00 49 1014.4
20260506110142 42 144 5.0 7.0 0.00 0.00 0.00 48 1014.4
20260506104642 42 139 5.0 10.0 0.00 0.00 0.00 47 1014.6
20260506103142 42 139 7.0 11.0 0.00 0.00 0.00 48 1014.5
20260506101642 42 138 8.0 9.0 0.00 0.00 0.00 47 1014.2
20260506100142 42 124 8.0 11.0 0.00 0.00 0.00 48 1014.2
20260506094642 42 139 8.0 11.0 0.00 0.00 0.00 48 1014.2
20260506093142 42 130 7.0 10.0 0.00 0.00 0.00 47 1014.3
20260506091642 42 148 5.0 10.0 0.00 0.00 0.00 47 1014.3
20260506090142 42 185 4.0 9.0 0.00 0.00 0.00 48 1014.3
20260506084642 42 142 11.0 16.0 0.00 0.00 0.00 48 1014.5
20260506083142 43 142 13.0 18.0 0.00 0.00 0.00 47 1014.5
20260506081642 43 140 13.0 18.0 0.00 0.00 0.00 46 1014.4
20260506080142 43 135 14.0 18.0 0.00 0.00 0.00 46 1014.1
20260506073143 43 144 12.0 16.0 0.00 0.00 0.00 48 1014.4
20260506071642 42 140 13.0 16.0 0.00 0.00 0.00 49 1014.4
20260506070142 43 140 11.0 13.0 0.00 0.00 0.00 49 1014.5
20260506061642 43 147 14.0 18.0 0.00 0.00 0.00 48 1014.3
20260506060142 44 126 12.0 16.0 0.00 0.00 0.00 48 1014.1